"Time","Value","Approval","myLocation"
"2023-04-17 00:00",7.29227345057082,"Approved","OW481"
"2023-04-17 01:00",7.29179885640949,"Approved","OW481"
"2023-04-17 02:00",7.29092426224817,"Approved","OW481"
"2023-04-17 03:00",7.29044966808685,"Approved","OW481"
"2023-04-17 04:00",7.29147507392553,"Approved","OW481"
"2023-04-17 05:00",7.2906004797642,"Approved","OW481"
"2023-04-17 06:00",7.29012588560288,"Approved","OW481"
"2023-04-17 07:00",7.29015129144156,"Approved","OW481"
"2023-04-17 08:00",7.28937669728024,"Approved","OW481"
"2023-04-17 09:00",7.28940210311891,"Approved","OW481"
"2023-04-17 10:00",7.28902750895759,"Approved","OW481"
"2023-04-17 11:00",7.28915291479627,"Approved","OW481"
"2023-04-17 12:00",7.28847832063495,"Approved","OW481"
"2023-04-17 13:00",7.28860372647362,"Approved","OW481"
"2023-04-17 14:00",7.2884291323123,"Approved","OW481"
"2023-04-17 15:00",7.28825453815098,"Approved","OW481"
"2023-04-17 16:00",7.28767994398966,"Approved","OW481"
"2023-04-17 17:00",7.28740534982833,"Approved","OW481"
"2023-04-17 18:00",7.28733075566701,"Approved","OW481"
"2023-04-17 19:00",7.28725616150569,"Approved","OW481"
"2023-04-17 20:00",7.28638156734437,"Approved","OW481"
"2023-04-17 21:00",7.28600697318304,"Approved","OW481"
"2023-04-17 22:00",7.28643237902172,"Approved","OW481"
"2023-04-17 23:00",7.2847577848604,"Approved","OW481"
"2023-04-18 00:00",7.28508319069908,"Approved","OW481"
"2023-04-18 01:00",7.28500859653775,"Approved","OW481"
"2023-04-18 02:00",7.28313400237643,"Approved","OW481"
"2023-04-18 03:00",7.28425940821511,"Approved","OW481"
"2023-04-18 04:00",7.28458481405378,"Approved","OW481"
"2023-04-18 05:00",7.28311021989246,"Approved","OW481"
"2023-04-18 06:00",7.28363562573114,"Approved","OW481"
"2023-04-18 07:00",7.28346103156982,"Approved","OW481"
"2023-04-18 08:00",7.2830864374085,"Approved","OW481"
"2023-04-18 09:00",7.28291184324717,"Approved","OW481"
"2023-04-18 10:00",7.28273724908585,"Approved","OW481"
"2023-04-18 11:00",7.28246265492453,"Approved","OW481"
"2023-04-18 12:00",7.2821880607632,"Approved","OW481"
"2023-04-18 13:00",7.28181346660188,"Approved","OW481"
"2023-04-18 14:00",7.28113887244056,"Approved","OW481"
"2023-04-18 15:00",7.28106427827924,"Approved","OW481"
"2023-04-18 16:00",7.28048968411791,"Approved","OW481"
"2023-04-18 17:00",7.28041508995659,"Approved","OW481"
"2023-04-18 18:00",7.27974049579527,"Approved","OW481"
"2023-04-18 19:00",7.27976590163395,"Approved","OW481"
"2023-04-18 20:00",7.27969130747262,"Approved","OW481"
"2023-04-18 21:00",7.2788167133113,"Approved","OW481"
"2023-04-18 22:00",7.27904211914998,"Approved","OW481"
"2023-04-18 23:00",7.27886752498866,"Approved","OW481"
"2023-04-19 00:00",7.27789293082733,"Approved","OW481"
"2023-04-19 01:00",7.27671833666601,"Approved","OW481"
"2023-04-19 02:00",7.27614374250469,"Approved","OW481"
"2023-04-19 03:00",7.27576914834337,"Approved","OW481"
"2023-04-19 04:00",7.27539455418204,"Approved","OW481"
"2023-04-19 05:00",7.27441996002072,"Approved","OW481"
"2023-04-19 06:00",7.2746453658594,"Approved","OW481"
"2023-04-19 07:00",7.27407077169808,"Approved","OW481"
"2023-04-19 08:00",7.27429617753675,"Approved","OW481"
"2023-04-19 09:00",7.27402158337543,"Approved","OW481"
"2023-04-19 10:00",7.27374698921411,"Approved","OW481"
"2023-04-19 11:00",7.27327239505278,"Approved","OW481"
"2023-04-19 12:00",7.27329780089146,"Approved","OW481"
"2023-04-19 13:00",7.27282320673014,"Approved","OW481"
"2023-04-19 14:00",7.27234861256882,"Approved","OW481"
"2023-04-19 15:00",7.27227401840749,"Approved","OW481"
"2023-04-19 16:00",7.27229942424617,"Approved","OW481"
"2023-04-19 17:00",7.27152483008485,"Approved","OW481"
"2023-04-19 18:00",7.27165023592353,"Approved","OW481"
"2023-04-19 19:00",7.2718756417622,"Approved","OW481"
"2023-04-19 20:00",7.27130104760088,"Approved","OW481"
"2023-04-19 21:00",7.27092645343956,"Approved","OW481"
"2023-04-19 22:00",7.27045185927824,"Approved","OW481"
"2023-04-19 23:00",7.26987726511691,"Approved","OW481"
"2023-04-20 00:00",7.26870267095559,"Approved","OW481"
"2023-04-20 01:00",7.26742807679427,"Approved","OW481"
"2023-04-20 02:00",7.26675348263295,"Approved","OW481"
"2023-04-20 03:00",7.26647888847162,"Approved","OW481"
"2023-04-20 04:00",7.2660042943103,"Approved","OW481"
"2023-04-20 05:00",7.26632970014898,"Approved","OW481"
"2023-04-20 06:00",7.26565510598766,"Approved","OW481"
"2023-04-20 07:00",7.26578051182633,"Approved","OW481"
"2023-04-20 08:00",7.26580591766501,"Approved","OW481"
"2023-04-20 09:00",7.26573132350369,"Approved","OW481"
"2023-04-20 10:00",7.26535672934237,"Approved","OW481"
"2023-04-20 11:00",7.26528213518104,"Approved","OW481"
"2023-04-20 12:00",7.26460754101972,"Approved","OW481"
"2023-04-20 13:00",7.2642329468584,"Approved","OW481"
"2023-04-20 14:00",7.26435835269708,"Approved","OW481"
"2023-04-20 15:00",7.26388375853575,"Approved","OW481"
"2023-04-20 16:00",7.26400916437443,"Approved","OW481"
"2023-04-20 17:00",7.26363457021311,"Approved","OW481"
"2023-04-20 18:00",7.26335997605179,"Approved","OW481"
"2023-04-20 19:00",7.26288538189046,"Approved","OW481"
"2023-04-20 20:00",7.26251078772914,"Approved","OW481"
"2023-04-20 21:00",7.26153619356782,"Approved","OW481"
"2023-04-20 22:00",7.26226159940649,"Approved","OW481"
"2023-04-20 23:00",7.26138700524517,"Approved","OW481"
"2023-04-21 00:00",7.26111241108385,"Approved","OW481"
"2023-04-21 01:00",7.26033781692253,"Approved","OW481"
"2023-04-21 02:00",7.2616632227612,"Approved","OW481"
"2023-04-21 03:00",7.26118862859988,"Approved","OW481"
"2023-04-21 04:00",7.26001403443856,"Approved","OW481"
"2023-04-21 05:00",7.25903944027724,"Approved","OW481"
"2023-04-21 06:00",7.25956484611591,"Approved","OW481"
"2023-04-21 07:00",7.26049025195459,"Approved","OW481"
"2023-04-21 08:00",7.26041565779327,"Approved","OW481"
"2023-04-21 09:00",7.26054106363195,"Approved","OW481"
"2023-04-21 10:00",7.25986646947062,"Approved","OW481"
"2023-04-21 11:00",7.2599918753093,"Approved","OW481"
"2023-04-21 12:00",7.25941728114798,"Approved","OW481"
"2023-04-21 13:00",7.25974268698666,"Approved","OW481"
"2023-04-21 14:00",7.25946809282533,"Approved","OW481"
"2023-04-21 15:00",7.25879349866401,"Approved","OW481"
"2023-04-21 16:00",7.25831890450269,"Approved","OW481"
"2023-04-21 17:00",7.25864431034137,"Approved","OW481"
"2023-04-21 18:00",7.25906971618004,"Approved","OW481"
"2023-04-21 19:00",7.25749512201872,"Approved","OW481"
"2023-04-21 20:00",7.2566205278574,"Approved","OW481"
"2023-04-21 21:00",7.25594593369608,"Approved","OW481"
"2023-04-21 22:00",7.25537133953475,"Approved","OW481"
"2023-04-21 23:00",7.25539674537343,"Approved","OW481"
"2023-04-22 00:00",7.25392215121211,"Approved","OW481"
"2023-04-22 01:00",7.25394755705079,"Approved","OW481"
"2023-04-22 02:00",7.25287296288946,"Approved","OW481"
"2023-04-22 03:00",7.25289836872814,"Approved","OW481"
"2023-04-22 04:00",7.25212377456682,"Approved","OW481"
"2023-04-22 05:00",7.2519491804055,"Approved","OW481"
"2023-04-22 06:00",7.25187458624417,"Approved","OW481"
"2023-04-22 07:00",7.25269999208285,"Approved","OW481"
"2023-04-22 08:00",7.25302539792153,"Approved","OW481"
"2023-04-22 09:00",7.2534508037602,"Approved","OW481"
"2023-04-22 10:00",7.25347620959888,"Approved","OW481"
"2023-04-22 11:00",7.25360161543756,"Approved","OW481"
"2023-04-22 12:00",7.25342702127624,"Approved","OW481"
"2023-04-22 13:00",7.25335242711491,"Approved","OW481"
"2023-04-22 14:00",7.25287783295359,"Approved","OW481"
"2023-04-22 15:00",7.25270323879227,"Approved","OW481"
"2023-04-22 16:00",7.25262864463095,"Approved","OW481"
"2023-04-22 17:00",7.25215405046962,"Approved","OW481"
"2023-04-22 18:00",7.2529794563083,"Approved","OW481"
"2023-04-22 19:00",7.25090486214698,"Approved","OW481"
"2023-04-22 20:00",7.24913026798566,"Approved","OW481"
"2023-04-22 21:00",7.24775567382433,"Approved","OW481"
"2023-04-22 22:00",7.24818107966301,"Approved","OW481"
"2023-04-22 23:00",7.24700648550169,"Approved","OW481"
"2023-04-23 00:00",7.24733189134037,"Approved","OW481"
"2023-04-23 01:00",7.24755729717904,"Approved","OW481"
"2023-04-23 02:00",7.24918270301772,"Approved","OW481"
"2023-04-23 03:00",7.2491081088564,"Approved","OW481"
"2023-04-23 04:00",7.24863351469508,"Approved","OW481"
"2023-04-23 05:00",7.24825892053375,"Approved","OW481"
"2023-04-23 06:00",7.24888432637243,"Approved","OW481"
"2023-04-23 07:00",7.24930973221111,"Approved","OW481"
"2023-04-23 08:00",7.24983513804978,"Approved","OW481"
"2023-04-23 09:00",7.24996054388846,"Approved","OW481"
"2023-04-23 10:00",7.24948594972714,"Approved","OW481"
"2023-04-23 11:00",7.24961135556582,"Approved","OW481"
"2023-04-23 12:00",7.2493367614045,"Approved","OW481"
"2023-04-23 13:00",7.24936216724317,"Approved","OW481"
"2023-04-23 14:00",7.24908757308185,"Approved","OW481"
"2023-04-23 15:00",7.24901297892053,"Approved","OW481"
"2023-04-23 16:00",7.24873838475921,"Approved","OW481"
"2023-04-23 17:00",7.24966379059788,"Approved","OW481"
"2023-04-23 18:00",7.24958919643656,"Approved","OW481"
"2023-04-23 19:00",7.25011460227524,"Approved","OW481"
"2023-04-23 20:00",7.24954000811391,"Approved","OW481"
"2023-04-23 21:00",7.24976541395259,"Approved","OW481"
"2023-04-23 22:00",7.24909081979127,"Approved","OW481"
"2023-04-23 23:00",7.24891622562995,"Approved","OW481"
"2023-04-24 00:00",7.24764163146862,"Approved","OW481"
"2023-04-24 01:00",7.2469670373073,"Approved","OW481"
"2023-04-24 02:00",7.24689244314598,"Approved","OW481"
"2023-04-24 03:00",7.24581784898466,"Approved","OW481"
"2023-04-24 04:00",7.24644325482333,"Approved","OW481"
"2023-04-24 05:00",7.24576866066201,"Approved","OW481"
"2023-04-24 06:00",7.24569406650069,"Approved","OW481"
"2023-04-24 07:00",7.24571947233937,"Approved","OW481"
"2023-04-24 08:00",7.24584487817804,"Approved","OW481"
"2023-04-24 09:00",7.24597028401672,"Approved","OW481"
"2023-04-24 10:00",7.2459956898554,"Approved","OW481"
"2023-04-24 11:00",7.24622109569408,"Approved","OW481"
"2023-04-24 12:00",7.24584650153275,"Approved","OW481"
"2023-04-24 13:00",7.24577190737143,"Approved","OW481"
"2023-04-24 14:00",7.24629731321011,"Approved","OW481"
"2023-04-24 15:00",7.24612271904878,"Approved","OW481"
"2023-04-24 16:00",7.24574812488746,"Approved","OW481"
"2023-04-24 17:00",7.24577353072614,"Approved","OW481"
"2023-04-24 18:00",7.24589893656482,"Approved","OW481"
"2023-04-24 19:00",7.24622434240349,"Approved","OW481"
"2023-04-24 20:00",7.24634974824217,"Approved","OW481"
"2023-04-24 21:00",7.24497515408085,"Approved","OW481"
"2023-04-24 22:00",7.24450055991953,"Approved","OW481"
"2023-04-24 23:00",7.24372596575821,"Approved","OW481"
"2023-04-25 00:00",7.24375137159688,"Approved","OW481"
"2023-04-25 01:00",7.24447677743556,"Approved","OW481"
"2023-04-25 02:00",7.24440218327424,"Approved","OW481"
"2023-04-25 03:00",7.24452758911291,"Approved","OW481"
"2023-04-25 04:00",7.24425299495159,"Approved","OW481"
"2023-04-25 05:00",7.24497840079027,"Approved","OW481"
"2023-04-25 06:00",7.24420380662895,"Approved","OW481"
"2023-04-25 07:00",7.24552921246762,"Approved","OW481"
"2023-04-25 08:00",7.2452546183063,"Approved","OW481"
"2023-04-25 09:00",7.24538002414498,"Approved","OW481"
"2023-04-25 10:00",7.24520542998366,"Approved","OW481"
"2023-04-25 11:00",7.24493083582233,"Approved","OW481"
"2023-04-25 12:00",7.24495624166101,"Approved","OW481"
"2023-04-25 13:00",7.24448164749969,"Approved","OW481"
"2023-04-25 14:00",7.24510705333837,"Approved","OW481"
"2023-04-25 15:00",7.24543245917704,"Approved","OW481"
"2023-04-25 16:00",7.24485786501572,"Approved","OW481"
"2023-04-25 17:00",7.2454832708544,"Approved","OW481"
"2023-04-25 18:00",7.24480867669308,"Approved","OW481"
"2023-04-25 19:00",7.24343408253175,"Approved","OW481"
"2023-04-25 20:00",7.24335948837043,"Approved","OW481"
"2023-04-25 21:00",7.24358489420911,"Approved","OW481"
"2023-04-25 22:00",7.24351030004779,"Approved","OW481"
"2023-04-25 23:00",7.24273570588646,"Approved","OW481"
"2023-04-26 00:00",7.24286111172514,"Approved","OW481"
"2023-04-26 01:00",7.24318651756382,"Approved","OW481"
"2023-04-26 02:00",7.2432119234025,"Approved","OW481"
"2023-04-26 03:00",7.24353732924117,"Approved","OW481"
"2023-04-26 04:00",7.24416273507985,"Approved","OW481"
"2023-04-26 05:00",7.24328814091853,"Approved","OW481"
"2023-04-26 06:00",7.2444135467572,"Approved","OW481"
"2023-04-26 07:00",7.24403895259588,"Approved","OW481"
"2023-04-26 08:00",7.24416435843456,"Approved","OW481"
"2023-04-26 09:00",7.24388976427324,"Approved","OW481"
"2023-04-26 10:00",7.24421517011192,"Approved","OW481"
"2023-04-26 11:00",7.24374057595059,"Approved","OW481"
"2023-04-26 12:00",7.24406598178927,"Approved","OW481"
"2023-04-26 13:00",7.24339138762795,"Approved","OW481"
"2023-04-26 14:00",7.24331679346662,"Approved","OW481"
"2023-04-26 15:00",7.2435421993053,"Approved","OW481"
"2023-04-26 16:00",7.24306760514398,"Approved","OW481"
"2023-04-26 17:00",7.24399301098266,"Approved","OW481"
"2023-04-26 18:00",7.24391841682133,"Approved","OW481"
"2023-04-26 19:00",7.24334382266001,"Approved","OW481"
"2023-04-26 20:00",7.24136922849869,"Approved","OW481"
"2023-04-26 21:00",7.24159463433737,"Approved","OW481"
"2023-04-26 22:00",7.24132004017604,"Approved","OW481"
"2023-04-26 23:00",7.24064544601472,"Approved","OW481"
"2023-04-27 00:00",7.2408708518534,"Approved","OW481"
"2023-04-27 01:00",7.24109625769208,"Approved","OW481"
"2023-04-27 02:00",7.24142166353075,"Approved","OW481"
"2023-04-27 03:00",7.24314706936943,"Approved","OW481"
"2023-04-27 04:00",7.24237247520811,"Approved","OW481"
"2023-04-27 05:00",7.24199788104679,"Approved","OW481"
"2023-04-27 06:00",7.24242328688546,"Approved","OW481"
"2023-04-27 07:00",7.24244869272414,"Approved","OW481"
"2023-04-27 08:00",7.24247409856282,"Approved","OW481"
"2023-04-27 09:00",7.2436995044015,"Approved","OW481"
"2023-04-27 10:00",7.24462491024017,"Approved","OW481"
"2023-04-27 11:00",7.24405031607885,"Approved","OW481"
"2023-04-27 12:00",7.24407572191753,"Approved","OW481"
"2023-04-27 13:00",7.24410112775621,"Approved","OW481"
"2023-04-27 14:00",7.24392653359488,"Approved","OW481"
"2023-04-27 15:00",7.24395193943356,"Approved","OW481"
"2023-04-27 16:00",7.24407734527224,"Approved","OW481"
"2023-04-27 17:00",7.24400275111091,"Approved","OW481"
"2023-04-27 18:00",7.24452815694959,"Approved","OW481"
"2023-04-27 19:00",7.24225356278827,"Approved","OW481"
"2023-04-27 20:00",7.24167896862695,"Approved","OW481"
"2023-04-27 21:00",7.24090437446563,"Approved","OW481"
"2023-04-27 22:00",7.2410297803043,"Approved","OW481"
"2023-04-27 23:00",7.24045518614298,"Approved","OW481"
"2023-04-28 00:00",7.24038059198166,"Approved","OW481"
"2023-04-28 01:00",7.24060599782033,"Approved","OW481"
"2023-04-28 02:00",7.24073140365901,"Approved","OW481"
"2023-04-28 03:00",7.24095680949769,"Approved","OW481"
"2023-04-28 04:00",7.24148221533637,"Approved","OW481"
"2023-04-28 05:00",7.24160762117504,"Approved","OW481"
"2023-04-28 06:00",7.24153302701372,"Approved","OW481"
"2023-04-28 07:00",7.2416584328524,"Approved","OW481"
"2023-04-28 08:00",7.24278383869108,"Approved","OW481"
"2023-04-28 09:00",7.24280924452975,"Approved","OW481"
"2023-04-28 10:00",7.24263465036843,"Approved","OW481"
"2023-04-28 11:00",7.24306005620711,"Approved","OW481"
"2023-04-28 12:00",7.24278546204579,"Approved","OW481"
"2023-04-28 13:00",7.24281086788446,"Approved","OW481"
"2023-04-28 14:00",7.24243627372314,"Approved","OW481"
"2023-04-28 15:00",7.24176167956182,"Approved","OW481"
"2023-04-28 16:00",7.2421870854005,"Approved","OW481"
"2023-04-28 17:00",7.24221249123917,"Approved","OW481"
"2023-04-28 18:00",7.24213789707785,"Approved","OW481"
"2023-04-28 19:00",7.24016330291653,"Approved","OW481"
"2023-04-28 20:00",7.23998870875521,"Approved","OW481"
"2023-04-28 21:00",7.23951411459388,"Approved","OW481"
"2023-04-28 22:00",7.23923952043256,"Approved","OW481"
"2023-04-28 23:00",7.23846492627124,"Approved","OW481"
"2023-04-29 00:00",7.23859033210991,"Approved","OW481"
"2023-04-29 01:00",7.23851573794859,"Approved","OW481"
"2023-04-29 02:00",7.23814114378727,"Approved","OW481"
"2023-04-29 03:00",7.23896654962595,"Approved","OW481"
"2023-04-29 04:00",7.23859195546462,"Approved","OW481"
"2023-04-29 05:00",7.2388173613033,"Approved","OW481"
"2023-04-29 06:00",7.23914276714198,"Approved","OW481"
"2023-04-29 07:00",7.23906817298066,"Approved","OW481"
"2023-04-29 08:00",7.23849357881933,"Approved","OW481"
"2023-04-29 09:00",7.23901898465801,"Approved","OW481"
"2023-04-29 10:00",7.23914439049669,"Approved","OW481"
"2023-04-29 11:00",7.23876979633537,"Approved","OW481"
"2023-04-29 12:00",7.23969520217404,"Approved","OW481"
"2023-04-29 13:00",7.23912060801272,"Approved","OW481"
"2023-04-29 14:00",7.2397460138514,"Approved","OW481"
"2023-04-29 15:00",7.23977141969008,"Approved","OW481"
"2023-04-29 16:00",7.23969682552875,"Approved","OW481"
"2023-04-29 17:00",7.23992223136743,"Approved","OW481"
"2023-04-29 18:00",7.23994763720611,"Approved","OW481"
"2023-04-29 19:00",7.23767304304479,"Approved","OW481"
"2023-04-29 20:00",7.23749844888346,"Approved","OW481"
"2023-04-29 21:00",7.23702385472214,"Approved","OW481"
"2023-04-29 22:00",7.23664926056082,"Approved","OW481"
"2023-04-29 23:00",7.2359746663995,"Approved","OW481"
"2023-04-30 00:00",7.23650007223817,"Approved","OW481"
"2023-04-30 01:00",7.23632547807685,"Approved","OW481"
"2023-04-30 02:00",7.23665088391553,"Approved","OW481"
"2023-04-30 03:00",7.23647628975421,"Approved","OW481"
"2023-04-30 04:00",7.23640169559288,"Approved","OW481"
"2023-04-30 05:00",7.23592710143156,"Approved","OW481"
"2023-04-30 06:00",7.23465250727024,"Approved","OW481"
"2023-04-30 07:00",7.23467791310891,"Approved","OW481"
"2023-04-30 08:00",7.23570331894759,"Approved","OW481"
"2023-04-30 09:00",7.23572872478627,"Approved","OW481"
"2023-04-30 10:00",7.23575413062495,"Approved","OW481"
"2023-04-30 11:00",7.23567953646362,"Approved","OW481"
"2023-04-30 12:00",7.2356049423023,"Approved","OW481"
"2023-04-30 13:00",7.23623034814098,"Approved","OW481"
"2023-04-30 14:00",7.23605575397966,"Approved","OW481"
"2023-04-30 15:00",7.23608115981833,"Approved","OW481"
"2023-04-30 16:00",7.23590656565701,"Approved","OW481"
"2023-04-30 17:00",7.23583197149569,"Approved","OW481"
"2023-04-30 18:00",7.23565737733437,"Approved","OW481"
"2023-04-30 19:00",7.23388278317305,"Approved","OW481"
"2023-04-30 20:00",7.23400818901172,"Approved","OW481"
"2023-04-30 21:00",7.2333335948504,"Approved","OW481"
"2023-04-30 22:00",7.23295900068908,"Approved","OW481"
"2023-04-30 23:00",7.23278440652775,"Approved","OW481"
"2023-05-01 00:00",7.23170981236643,"Approved","OW481"
"2023-05-01 01:00",7.23253521820511,"Approved","OW481"
"2023-05-01 02:00",7.23186062404379,"Approved","OW481"
"2023-05-01 03:00",7.23198602988246,"Approved","OW481"
"2023-05-01 04:00",7.23301143572114,"Approved","OW481"
"2023-05-01 05:00",7.23243684155982,"Approved","OW481"
"2023-05-01 06:00",7.2321622473985,"Approved","OW481"
"2023-05-01 07:00",7.23248765323717,"Approved","OW481"
"2023-05-01 08:00",7.23201305907585,"Approved","OW481"
"2023-05-01 09:00",7.23223846491453,"Approved","OW481"
"2023-05-01 10:00",7.23196387075321,"Approved","OW481"
"2023-05-01 11:00",7.23208927659188,"Approved","OW481"
"2023-05-01 12:00",7.23231468243056,"Approved","OW481"
"2023-05-01 13:00",7.23154008826924,"Approved","OW481"
"2023-05-01 14:00",7.23226549410792,"Approved","OW481"
"2023-05-01 15:00",7.23189089994659,"Approved","OW481"
"2023-05-01 16:00",7.23131630578527,"Approved","OW481"
"2023-05-01 17:00",7.23134171162395,"Approved","OW481"
"2023-05-01 18:00",7.23086711746262,"Approved","OW481"
"2023-05-01 19:00",7.2284925233013,"Approved","OW481"
"2023-05-01 20:00",7.22821792913998,"Approved","OW481"
"2023-05-01 21:00",7.22714333497866,"Approved","OW481"
"2023-05-01 22:00",7.22696874081733,"Approved","OW481"
"2023-05-01 23:00",7.22679414665601,"Approved","OW481"
"2023-05-02 00:00",7.22701955249469,"Approved","OW481"
"2023-05-02 01:00",7.22594495833337,"Approved","OW481"
"2023-05-02 02:00",7.22577036417204,"Approved","OW481"
"2023-05-02 03:00",7.22609577001072,"Approved","OW481"
"2023-05-02 04:00",7.2267211758494,"Approved","OW481"
"2023-05-02 05:00",7.22654658168808,"Approved","OW481"
"2023-05-02 06:00",7.22567198752675,"Approved","OW481"
"2023-05-02 07:00",7.22529739336543,"Approved","OW481"
"2023-05-02 08:00",7.22442279920411,"Approved","OW481"
"2023-05-02 09:00",7.22394820504279,"Approved","OW481"
"2023-05-02 10:00",7.22397361088146,"Approved","OW481"
"2023-05-02 11:00",7.22349901672014,"Approved","OW481"
"2023-05-02 12:00",7.22282442255882,"Approved","OW481"
"2023-05-02 13:00",7.2225498283975,"Approved","OW481"
"2023-05-02 14:00",7.22237523423617,"Approved","OW481"
"2023-05-02 15:00",7.22230064007485,"Approved","OW481"
"2023-05-02 16:00",7.22162604591353,"Approved","OW481"
"2023-05-02 17:00",7.22155145175221,"Approved","OW481"
"2023-05-02 18:00",7.22097685759088,"Approved","OW481"
"2023-05-02 19:00",7.22000226342956,"Approved","OW481"
"2023-05-02 20:00",7.22012766926824,"Approved","OW481"
"2023-05-02 21:00",7.21885307510692,"Approved","OW481"
"2023-05-02 22:00",7.21639736415751,"Approved","OW481"
"2023-05-02 23:00",7.21566008882582,"Approved","OW481"
"2023-05-03 00:00",7.21562281349413,"Approved","OW481"
"2023-05-03 01:00",7.21488553816244,"Approved","OW481"
"2023-05-03 02:00",7.21384826283076,"Approved","OW481"
"2023-05-03 03:00",7.21401098749907,"Approved","OW481"
"2023-05-03 04:00",7.21257371216738,"Approved","OW481"
"2023-05-03 05:00",7.21273643683569,"Approved","OW481"
"2023-05-03 06:00",7.21149916150401,"Approved","OW481"
"2023-05-03 07:00",7.21086188617232,"Approved","OW481"
"2023-05-03 08:00",7.21042461084063,"Approved","OW481"
"2023-05-03 09:00",7.20958733550895,"Approved","OW481"
"2023-05-03 10:00",7.20855006017726,"Approved","OW481"
"2023-05-03 11:00",7.21001278484557,"Approved","OW481"
"2023-05-03 12:00",7.20817550951388,"Approved","OW481"
"2023-05-03 13:00",7.2081382341822,"Approved","OW481"
"2023-05-03 14:00",7.20950095885051,"Approved","OW481"
"2023-05-03 15:00",7.20746368351882,"Approved","OW481"
"2023-05-03 16:00",7.20712640818713,"Approved","OW481"
"2023-05-03 17:00",7.20728913285545,"Approved","OW481"
"2023-05-03 18:00",7.20675185752376,"Approved","OW481"
"2023-05-03 19:00",7.20651458219207,"Approved","OW481"
"2023-05-03 20:00",7.20577730686038,"Approved","OW481"
"2023-05-03 21:00",7.2053400315287,"Approved","OW481"
"2023-05-03 22:00",7.20440275619701,"Approved","OW481"
"2023-05-03 23:00",7.20416548086532,"Approved","OW481"
"2023-05-04 00:00",7.20402820553363,"Approved","OW481"
"2023-05-04 01:00",7.20319093020195,"Approved","OW481"
"2023-05-04 02:00",7.20075365487026,"Approved","OW481"
"2023-05-04 03:00",7.19991637953857,"Approved","OW481"
"2023-05-04 04:00",7.19867910420689,"Approved","OW481"
"2023-05-04 05:00",7.1988418288752,"Approved","OW481"
"2023-05-04 06:00",7.19830455354351,"Approved","OW481"
"2023-05-04 07:00",7.19776727821182,"Approved","OW481"
"2023-05-04 08:00",7.19683000288014,"Approved","OW481"
"2023-05-04 09:00",7.19609272754845,"Approved","OW481"
"2023-05-04 10:00",7.19635545221676,"Approved","OW481"
"2023-05-04 11:00",7.19691817688507,"Approved","OW481"
"2023-05-04 12:00",7.19508090155339,"Approved","OW481"
"2023-05-04 13:00",7.1949436262217,"Approved","OW481"
"2023-05-04 14:00",7.19520635089001,"Approved","OW481"
"2023-05-04 15:00",7.19376907555832,"Approved","OW481"
"2023-05-04 16:00",7.19283180022664,"Approved","OW481"
"2023-05-04 17:00",7.19239452489495,"Approved","OW481"
"2023-05-04 18:00",7.19185724956326,"Approved","OW481"
"2023-05-04 19:00",7.19141997423158,"Approved","OW481"